STARLINK-37074, 68073

Orbit data source: Space-Track

STARLINK-37074, 68073 is a payload satellite owned by SpaceX/Seattle (US) in LEO that was launched on Wed, 04 Mar 2026 UTC via an FALCON 9 launch vehicle from the Air Force Eastern Test Range (AFETR). Payload-class satellites include a variety of spacecraft equipped with specific instruments for various scientific and technological missions. These include communications satellites like Starlink; space stations such as the ISS; scientific satellites like the Hubble; Earth observation satellites from companies like Planet Labs, Umbra, and HawkEye 360; GPS; miniature CubeSats for education and research; and military/defense satellites.

Loading next visibility...
Identifier
68073, 2026-042E
Orbit
LEO
Country
Flag of USUS
Related business
Manufacturer
SpaceX/Seattle
Mission
Operational spacecraft
Bus & Motor
STARLINK V2MO, Unknown motor
Mass
575 kg wet, ~530 kg dry
Launch date (UTC)
2026-03-04 (1 month ago)
Launch vehicle
FALCON 9
Launch site
Air Force Eastern Test Range (AFETR)
Object type
Payload
Rocket body
Debris
Shape & HBR
Unknown shape, 17.7 m
Radar Cross Section
RCS unknown

Expand to show TLE details & history
Last TLE update: 12 hours ago

TLE from 12 hours ago
0 STARLINK-37074
1 68073U 26042E   26102.06520998  .00181197  00000-0  11607-2 0  9992
2 68073  53.1577  28.1174 0000901  58.4096 301.7012 15.75244981  7354
Epoch: 2026-04-12T01:33Z
TLE epoch observation values (Epoch: 2026-04-12T01:33:54.142Z)
Latitude
-0.00002°
Longitude
164.36627°
Altitude
344.533 km
Speed
7.704 km/s
True Right ascension
01h 52m 28s
True Declination
0° 00' 00"
Sunlit
Object was in daylight at epoch
Visualization orbit readout
Latitude
Unknown
Longitude
Unknown
Altitude
Unknown
Speed
Unknown
Apparent Right ascension
Unknown
Apparent Declination
Unknown
Sunlit
N/A
Visualization observer readout
Local Sidereal Time
19:46:13
Azimuth
Unknown
Elevation
Unknown
Doppler factor
Unknown
Orbital elements
Apogee altitude
344.801 km
Perigee altitude
343.59 km
Semi-major axis
6,722.333 km
Eccentricity
0.00009
Inclination
53.1577°
RAAN
28.1174°
Arg. of periapsis
58.4096°
True anomaly
301.69242°
Mean anomaly
301.7012°
Eccentric anomaly
301.69681°
Mean motion
3.93789 °/min
Orbital period
91.42 mins
BSTAR
0.0011607
Loading maneuver chart data...
Computing Atmospheric mass density...
Loading historical data...
Loading historical data...
Loading historical data...
Loading historical data...
Loading historical data...
Loading historical data...
Loading historical data...

Documentation

Showing up to 5 results
|